Hourly Data Report for May 01, 2012

All times are specified in Local Standard Time (LST). Add 1 hour to adjust for Daylight Saving Time where and when it is observed.

YARMOUTH A
NOVA SCOTIA

43°49'37.000" N
66°05'17.000" W
42.90 m
8206495
71603
YQI

Download Data

Hourly Data (May 2012)
Hourly Data Report for May 1, 2012
Temp Definition
°C
Dew Point Temp Definition
°C
Rel Hum Definition
%
Wind Dir Definition
10's deg

Wind Spd Definition
km/h
Visibility Definition
km
Stn Press Definition
kPa
Hmdx Definition


Wind Chill Definition


Weather Definition


TIME
00:00 Legend Double Dagger 2.5 -0.3 82 25 8 10.0 102.08     LegendNANA
01:00 Legend Double Dagger 2.8 0.2 83   0 10.0 102.08     LegendNANA
02:00 Legend Double Dagger 2.6 0.3 85 24 5 10.0 102.09     Mostly Cloudy
03:00 Legend Double Dagger 2.2 0.6 89 25 8 10.0 102.10     LegendNANA
04:00 Legend Double Dagger 1.1 -0.2 91   0 10.0 102.11     LegendNANA
05:00 Legend Double Dagger 0.6 -1.0 89 16 6 10.0 102.10     Cloudy
06:00 Legend Double Dagger 2.2 1.0 92   0 10.0 102.13     LegendNANA
07:00 Legend Double Dagger 4.2 2.7 90 17 6 10.0 102.18     LegendNANA
08:00 Legend Double Dagger 7.0 2.3 72 18 12 10.0 102.18     Cloudy
09:00 Legend Double Dagger 8.0 -0.7 54 17 17 10.0 102.15     LegendNANA
10:00 Legend Double Dagger 8.4 -0.1 55 21 20 10.0 102.14     LegendNANA
11:00 Legend Double Dagger 7.9 0.2 58 17 18 10.0 102.08     Cloudy
12:00 Legend Double Dagger 7.7 0.9 62 19 18 10.0 102.07     LegendNANA
13:00 Legend Double Dagger 7.6 1.5 65 18 19 10.0 102.08     LegendNANA
14:00 Legend Double Dagger 7.0 1.1 66 20 23 10.0 102.09     Cloudy
15:00 Legend Double Dagger 6.6 1.5 70 19 18 10.0 102.03     LegendNANA
16:00 Legend Double Dagger 6.4 1.9 73 20 16 10.0 102.01     LegendNANA
17:00 Legend Double Dagger 5.5 -0.1 67 19 15 10.0 102.00     Rain Showers
18:00 Legend Double Dagger 4.6 1.6 81 15 15 8.1 101.96     Rain Showers,Fog
19:00 Legend Double Dagger 4.0 2.2 88 14 11 8.1 101.97     Rain Showers,Fog
20:00 Legend Double Dagger 3.9 3.0 94 13 8 10.0 101.96     Rain Showers
21:00 Legend Double Dagger 3.8 2.9 94 11 13 10.0 101.92     LegendNANA
22:00 Legend Double Dagger 3.5 2.5 93 10 12 10.0 101.88     Rain Showers
23:00 Legend Double Dagger 3.4 2.4 93 11 12 10.0 101.87     Rain Showers

Notes on Data Quality.

Legend

  • E = Estimated
  • M = Missing
  • NA = Not Available
  • ‡ = Partner data that is not subject to review by the National Climate Archives
Date modified: